Regional Weather Roundup
Issued by NWS

Home | Current Version | Previous Version | Text Only | Print | Product List | Glossary Off
Versions: 1 2 3 4 5 6 7 8 9 10 11 12 13 14 15 16 17 18 19 20 21 22 23 24 25 26 27 28 29 30 31 32 33 34 35 36 37 38 39 40 41 42 43 44 45 46 47 48 49 50

900
ASUS43 KBIS 221210
RWRND

NORTH DAKOTA REGIONAL WEATHER ROUNDUP
NATIONAL WEATHER SERVICE BISMARCK ND
600 AM CST WED FEB 22 2017

NOTE: "FAIR" INDICATES FEW OR NO CLOUDS BELOW 12,000 FEET WITH NO
SIGNIFICANT WEATHER AND/OR OBSTRUCTIONS TO VISIBILITY.


NDZ001>003-009>011-017-221300-
NORTHWEST NORTH DAKOTA

CITY           SKY/WX    TMP DP  RH WIND       PRES   REMARKS
WILLISTON      LGT SNOW  32  31  96 N14       29.79R FOG
6HR MIN TEMP:  32; 6HR MAX TEMP:  34; 6HR PCP:  0.12;

MINOT          LGT SNOW  32  30  92 N16       29.74S FOG
MINOT AFB      LGT SNOW  31  28  89 N15       29.74S FOG
$$

NDZ018>021-031>035-040>046-221300-
SOUTHWEST NORTH DAKOTA

CITY           SKY/WX    TMP DP  RH WIND       PRES   REMARKS
BISMARCK       LGT RAIN  35  34  96 NW5       29.70S
6HR MIN TEMP:  30; 6HR MAX TEMP:  35; 6HR PCP:  0.01;

DICKINSON      LGT SNOW  32  31  96 NE12      29.66F FOG
GARRISON         N/A     32  31  96 N9        29.71R
6HR MIN TEMP:  32; 6HR MAX TEMP:  34; 6HR PCP:  0.01;

HETTINGER ARPT CLOUDY    38  36  92 NE5       29.66F
$$

NDZ004>008-012>016-024-026-027-054-221300-
NORTHEAST NORTH DAKOTA

CITY           SKY/WX    TMP DP  RH WIND       PRES   REMARKS
GRAND FORKS    CLOUDY    33  29  85 N12       29.71R FOG
GRND FRKS AFB  CLOUDY    32  32 100 N10       29.71R FOG
DEVILS LAKE    MIX PCPN  32  31  96 N10       29.71R FOG
$$

NDZ022-023-025-028>030-036>039-047>053-221300-
SOUTHEAST NORTH DAKOTA

CITY           SKY/WX    TMP DP  RH WIND       PRES   REMARKS
FARGO          CLOUDY    34  34 100 N13       29.68R FOG
6HR MIN TEMP:  32; 6HR MAX TEMP:  35;

JAMESTOWN      FAIR      34  32  92 N8        29.65S
$$





USA.gov is the U.S. government's official web portal to all federal, state and local government web resources and services.